SL-3 R/B

Satellite information

Favourite Embed

Satellite Type and Status

ROCKET BODYIN ORBIT

Key statistics

Satellite SL-3 R/B at a glance.

Uptime

18862

Days in orbit

Revolutions

≈ 14.1

Per day

Orbit

LEO

Low Earth Orbit

Inclination

81.2

Latest

Satellite identification and parameters

Extended collection of information and parameters for SL-3 R/B.

Object identification

Identified? True

Debris? False

Object name: SL-3 R/B

International designator: 1974-025B

Object number (NORAD): 7275

Object ID (CCSDS): 7275

Country: COMMONWEALTH OF INDEPENDENT STATES (CIS)

Current information (Y/N): Y

RCS size: LARGE

Orbital parameters

Period: 102.341 minutes

Inclination: 81.2428 deg

SMA: 7247.581 km

Apoapsis: 909.782 km

Periapsis: 829.109 km

RAAN: 194.1385 deg

Eccentricy: 0.0055655

Argument of periapsis: 151.9296 deg

Mean anomaly: 208.4895 deg

Mean motion: 14.07061778 rev/day

Mean motion (dot): 0.00000104 rev/day2

B* drag term: 0.000053779679 1/REarth

Two-line elements (TLE)

Creation date: Dec. 12, 2025, 10:14 a.m.

Reference frame: TEME

Reference center: EARTH

Epoch: Dec. 12, 2025, 12:51 a.m. UTC

TLE line 0: 0 SL-3 R/B

TLE line 1: 1 07275U 74025B 25346.03551160 .00000104 00000-0 53780-4 0 9992

TLE line 2: 2 07275 81.2428 194.1385 0055655 151.9296 208.4895 14.07061778648878

Live tracking on map

Real-time ground track for satellite SL-3 R/B.

In-orbit conjunctions

A list of the most updated potential collisions computed for object SL-3 R/B.

Target Orbit TCA Probability of collision Miss distance Type
COSMOS 985 DEB LEO 2025-04-27 21:26:42 0.0001622275 671.0 (m) DEBRIS
THORAD AGENA D DEB SSO 2025-04-20 03:38:19 0.0002335786 532.0 (m) DEBRIS
THOR BURNER 2 R/B SSO 2024-11-15 15:45:48 0.0003134181 441.0 (m) ROCKET BODY
SL-16 DEB LEO 2024-10-18 21:23:38 0.0006801932 149.0 (m) DEBRIS
DELTA 1 DEB SSO 2024-10-01 03:20:02 0.0002016608 192.0 (m) DEBRIS

Associated space launch

The Meteor-1 series was the first series of Soviet meteorological satellites.

SL-3 R/B was lifted into orbit during the mission ‘Vostok 8A92M | Meteor-1 17 (22L)’, on board a Vostok 8A92M space rocket.

The launch took place on April 24, 1974, 11:50 a.m. from 43/4 (43R).

For more information about the launch, click the button.

Launch to space Vostok 8A92M | Meteor-1 17 (22L)
Vostok 8A92M | Meteor-1 17 (22L)

Agency: N/A

Status: Launch Successful

Launch date: April 24, 1974, 11:50 a.m. UTC

Rocket: Vostok 8A92M

Launch pad: 43/4 (43R)

Location: Plesetsk Cosmodrome, Russian Federation

...

Latest news about this satellite

There are no fresh news available about this satellite. Check back as we update our databases every day.


Newsletter sign-up

Weekly statistics, charts and insights to help you stay on top of the space industry.